Welcome to the New NWS' Forecast!
Most changes are behind the scenes, but click here for differences you might notice.

Regional Weather Roundup (RWR)

Issued by National Weather Service (NWS)

                            
000
ASUS45 KSLC 230710
RWRUT 

UTAH REGIONAL WEATHER ROUNDUP
NATIONAL WEATHER SERVICE SALT LAKE CITY UT
100 AM MDT TUE OCT 23 2018

UTZ001>011-023>025-230800-

NORTHERN UTAH
  
CITY           SKY/WX    TMP DP  RH WIND       PRES   REMARKS
BRIGHAM CITY   CLOUDY    53  50  89 NE9       30.09R                  
DUGWAY         LGT RAIN  47  46  95 S1        30.09S                  
HILL AFB       CLOUDY    52  45  78 SE13      30.08S                  
LOGAN          RAIN      53  45  74 S15       30.09R                  
OGDEN          CLOUDY    51  49  92 SW5       30.06F                  
SALT LAKE CITY MOCLDY    52  49  89 CALM      30.06F                  
TOOELE VALLEY  CLOUDY    48  46  93 S9        30.08S                  
WENDOVER       LGT RAIN  53  45  74 NE5       30.07R                  
HEBER CITY       N/A     39  36  87 CALM      30.12S                  
WEST JORDAN    CLOUDY    49  49  98 CALM      30.09S                  

$$

UTZ011>015-024>027-230800-

CENTRAL/NORTHEAST UTAH
  
CITY           SKY/WX    TMP DP  RH WIND       PRES   REMARKS
PROVO AIRPORT  CLOUDY    47  46  97 SE3       30.11S                  
MOAB/CANYONLAN MOCLDY    50  49  96 CALM      30.12S                  
DELTA          PTCLDY    41  41 100 E3        30.10S                  
PRICE          CLOUDY    46  45  96 N7        30.17S                  
ROOSEVELT      CLOUDY    50  45  81 CALM      30.19R                  
VERNAL         LGT RAIN  50  47  89 E3        30.17R                  

$$

UTZ013>016-019>022-027-230800-

SOUTHERN UTAH
  
CITY           SKY/WX    TMP DP  RH WIND       PRES   REMARKS
BRYCE CANYON   CLOUDY    32  32 100 SW3       30.22R FOG              
CEDAR CITY     CLEAR     43  41  93 CALM      30.11S                  
MILFORD        CLEAR     44  43  96 W5        30.09F                  
ST GEORGE      SUNNY     57  53  86 CALM      30.04R                  
HANKSVILLE     CLOUDY    45  45 100 CALM      30.17R VSB 1/4          
BLANDING         N/A     50  46  84 NE9       30.24F                  

$$

REGIONAL REPORTS     COLORADO/ARIZONA
  
CITY           SKY/WX    TMP DP  RH WIND       PRES   REMARKS
CRAIG, CO      CLOUDY    49  34  56 SW3       30.17R                  
GRAND JUNCTION CLOUDY    52  47  83 S6        30.18F                  
RIFLE, CO      CLOUDY    54  43  66 W14G24    30.18R                  
MONTROSE, CO   CLOUDY    48  46  93 CALM      30.25R                  
CORTEZ, CO     PTCLDY    45  42  89 E3        30.18S                  
COLORADO CITY    N/A     52  45  76 SE3       30.12S                  
PAGE, AZ       PTCLDY    53  51  93 CALM      30.10S                  
GRAND CANYON   MOCLDY    38  38 100 NE3       30.17R                  
KINGMAN, AZ    MOCLDY    56  50  80 E7        30.01S                  
FLAGSTAFF, AZ  MOCLDY    38  35  89 CALM      30.18S                  

$$

REGIONAL REPORTS    NEVADA/IDAHO/WYOMING
  
CITY           SKY/WX    TMP DP  RH WIND       PRES   REMARKS
LAS VEGAS, NV  PTCLDY    64  49  57 W6        29.95S                  
ELY, NY        PTCLDY    34  30  85 SE7       30.13S WCI  28          
ELKO, NV       CLOUDY    48  42  80 CALM      30.05S                  
POCATELLO, ID  CLOUDY    51  45  79 NE5       30.04F                  
BURLEY, ID     LGT RAIN  55  48  77 E8        30.03R                  
FORT BRIDGER,  CLOUDY    44  43  94 W8        30.17F                  
EVANSTON, WY   LGT RAIN  42  41  96 W8        30.16F                  
ROCK SPRINGS,  MOCLDY    43  31  62 E6        30.15F                  
KEMMERER, WY   CLOUDY    45  30  57 CALM      30.17S                  

$$